Flag for Germany Weather past 2 weeks in Stassfurt, Saxony-Anhalt, Germany

Now
53 °F

Overcast.


Feels Like: 53 °F
Forecast: 44 / 66 °F
Wind: 1 mph from Southwest

Location: Magdeburg

Current Time: May 29, 2015 at 1:02:57 AM

Latest Report: May 29, 2015 at 12:00 AM


Visibility: 7 mi

Pressure: 29.93 "Hg

Humidity: 91%

Dew point: 50 °F

Location of StassfurtLocation

Historic Weather in Stassfurt — Graph

°F

Stassfurt temperature yesterday

Maximum temperature yesterday: 67 °F (at 2:00 PM)
Minimum temperature yesterday: 45 °F (at 6:00 AM)
Average temperature yesterday: 56 °F

Past Weeks' High & Low Weather Summary

 TemperatureHumidityPressure
High71 °F (May 18, 6:00 PM)97% (May 15, 5:00 AM)30.32 "Hg (May 15, 5:00 AM)
Low38 °F (May 15, 5:00 AM)27% (May 22, 3:00 PM)29.61 "Hg (May 19, 2:00 AM)
Average55 °F64%30.04 "Hg
* Reported May 13 10:00 PM — May 28 10:00 PM, Stassfurt, Weather by CustomWeather, © 2015

Note: Actual official high and low records may vary slightly from our data, if they occured in-between our weather recording intervals... More about our weather records

Advertising

Stassfurt weather history for previous 24 hours

 ConditionsComfort  
Time TempWeatherWind HumidityBarometerVisibility
10:00 PM
Thu, May 28
53 °FOvercast.1 mph87%29.93 "Hg13 mi
9:00 PM53 °FSprinkles. Overcast.1 mph90%29.92 "Hg12 mi
8:00 PM56 °FOvercast.2 mph74%29.90 "Hg28 mi
7:00 PM59 °FOvercast.5 mph63%29.90 "Hg22 mi
6:00 PM64 °FPartly sunny.6 mph57%29.86 "Hg22 mi
4:00 PM65 °FOvercast.6 mph51%29.88 "Hg25 mi
3:00 PM67 °FOvercast.7 mph43%29.88 "Hg31 mi
2:00 PM67 °FPartly sunny.8 mph44%29.89 "Hg34 mi
1:00 PM66 °FPartly sunny.8 mph45%29.91 "Hg25 mi
12:00 PM65 °FOvercast.7 mph45%29.94 "Hg25 mi
10:00 AM59 °FOvercast.7 mph45%29.97 "Hg25 mi
9:00 AM58 °FOvercast.5 mph51%29.99 "Hg25 mi
8:00 AM53 °FOvercast.3 mph62%30.00 "Hg25 mi
7:00 AM49 °FOvercast.3 mph68%30.01 "Hg25 mi
6:00 AM45 °FOvercast.2 mph81%30.03 "Hg22 mi
4:00 AM47 °FPassing clouds.3 mph75%30.06 "Hg17 mi
3:00 AM47 °FOvercast.2 mph78%30.07 "Hg17 mi
2:00 AM47 °FPassing clouds.2 mph76%30.09 "Hg12 mi
1:00 AM49 °FPassing clouds.2 mph72%30.10 "Hg19 mi
Weather by CustomWeather, © 2015

See weather overviewHow to use our weather pages